Regional Weather Roundup
Issued by NWS

Home | Current Version | Previous Version | Graphics & Text | Print | Product List | Glossary On
Versions: 1 2 3 4 5 6 7 8 9 10 11 12 13 14 15 16 17 18 19 20 21 22 23 24 25 26 27 28 29 30 31 32 33 34 35 36 37 38 39 40 41 42 43 44 45 46 47 48 49 50
000
ASUS45 KSLC 221510
RWRUT

UTAH REGIONAL WEATHER ROUNDUP
NATIONAL WEATHER SERVICE SALT LAKE CITY UT
900 AM MDT FRI MAY 22 2015

UTZ001>011-023>025-221600-

NORTHERN UTAH

CITY           SKY/WX    TMP DP  RH WIND       PRES   REMARKS
BRIGHAM CITY   CLOUDY    54  46  74 CALM      29.92S
HILL AFB       CLOUDY    54  43  66 E12       29.92S
LOGAN          CLOUDY    51  44  77 N3        29.93S
OGDEN          CLOUDY    54  44  69 SE8       29.91S
PROVO AIRPORT  NOT AVBL
SALT LAKE CITY CLOUDY    56  43  61 S6        29.91S
VERNAL         CLOUDY    50  46  86 SE5       29.99S
WENDOVER       CLOUDY    55  48  76 CALM      29.93R
HEBER CITY     RAIN      43  41  93 CALM      29.99R
WEST JORDAN    PTSUNNY   55  46  71 CALM      29.93S

$$

UTZ012>022-026-027-221600-

SOUTHERN/CENTRAL UTAH

CITY           SKY/WX    TMP DP  RH WIND       PRES   REMARKS
BLANDING       SUNNY     55  39  55 S8        30.09F
BRYCE CANYON   SUNNY     48  28  46 SE9       30.02S
CEDAR CITY     MOSUNNY   56  29  35 SW3       29.93S
DELTA          PTSUNNY   56  42  59 E3        29.93S
HANKSVILLE     SUNNY     63  36  36 N5        29.93S
MILFORD        MOSUNNY   57  33  40 SW9       29.91S
MOAB/CYNLANDS  SUNNY     60  43  53 E14       29.93S
PRICE          CLOUDY    50  40  68 W5        29.98R
ST GEORGE      CLOUDY    63  28  27 SW3       29.89S
KANAB          PTSUNNY   54  32  43 W3        29.98F

$$

REGIONAL REPORTS     COLORADO/ARIZONA

CITY           SKY/WX    TMP DP  RH WIND       PRES   REMARKS
CRAIG, CO      LGT RAIN  45  41  86 SW20      30.04R
GRAND JUNCTION CLOUDY    53  46  77 E9        29.98F
RIFLE          LGT RAIN  49  43  80 NE5       30.03S
MONTROSE       MOSUNNY   54  41  61 CALM      30.04S
CORTEZ         SUNNY     58  39  49 S12       30.04S
PAGE, AZ       NOT AVBL
GRAND CANYON   MOSUNNY   49  33  54 S7        30.02S
KINGMAN        PTSUNNY   62  30  29 SW6       29.90S
FLAGSTAFF      PTSUNNY   46  35  65 SW9       30.04S

$$

REGIONAL REPORTS    NEVADA/IDAHO/WYOMING

CITY           SKY/WX    TMP DP  RH WIND       PRES   REMARKS
LAS VEGAS, NV  PTSUNNY   62  40  44 S14       29.82R
ELY            CLOUDY    44  37  76 CALM      29.98S
ELKO           CLOUDY    51  44  77 W3        29.94S
POCATELLO, ID  PTSUNNY   52  48  86 CALM      29.93S
BURLEY         CLOUDY    54  47  77 S3        29.91S
EVANSTON, WY   PTSUNNY   44  40  85 CALM      30.00S
ROCK SPRINGS   CLOUDY    48  41  76 E7        30.00S
KEMMERER       CLOUDY    45  39  81 CALM      30.01F

$$



USA.gov is the U.S. government's official web portal to all federal, state and local government web resources and services.